Location: Jackson
(42.2460°N, 84.4010°W)
Time: 08:42:51
(UTC-05:00)

BlueWalker 3 - Pass Details

Date: 27 January 2026
Orbit: 451 x 461 km, 53.2° (Epoch: 13 February)

Event Time Altitude Azimuth Distance (km) Brightness Sun altitude
Rises 18:16:11 0° 264° (W) 2,453 7.4 -6.1°
Reaches altitude 10° 18:18:33 10° 278° (W) 1,581 5.6 -6.5°
Maximum altitude 18:21:35 26° 336° (NNW) 930 3.4 -7.0°
Drops below altitude 10° 18:24:38 10° 35° (NE) 1,584 4.0 -7.6°
Enters shadow 18:25:22 - 41° (NE) 1,841 4.3 -7.7°
